Location: Betz
(49.1556°N, 2.9558°E)
Time: 07:26:53
(UTC+00:00)

Cosmos 2181 Rocket - Pass Details

Date: 18 September 2019
Orbit: 953 x 1014 km, 82.9° (Epoch: 21 October)

Event Time Altitude Azimuth Distance (km) Brightness Sun altitude
Rises 20:10:42 0° 193° (SSW) 3,650 6.8 -21.8°
Reaches altitude 10° 20:13:12 10° 195° (SSW) 2,715 6.2 -22.2°
Maximum altitude 20:19:25 74° 281° (W) 1,029 4.2 -23.0°
Drops below altitude 10° 20:25:48 10° 6° (N) 2,777 6.7 -23.9°
Sets 20:28:22 0° 9° (N) 3,739 7.4 -24.2°
